This is the latest recevied weather packets stored in our database for station/object BRIVER. If no packets are shown the sender has not sent any weather packets the latest 10 day(s).
| Time | Temp. | Humidity | Pressure | Rain* | Wind** | Luminosity | Snow |
|---|---|---|---|---|---|---|---|
| 1777483541 | 7.22° C | 64% | 1021.6 hPa | 0 mm | - | - | - |
| 1777483363 | 7.78° C | 66% | 1021.6 hPa | 0 mm | - | - | - |
| 1777483241 | 7.78° C | 63% | 1021.5 hPa | 0 mm | - | - | - |
| 1777482941 | 7.78° C | 69% | 1021.6 hPa | 0 mm | - | - | - |
| 1777482823 | 7.78° C | 70% | 1021.4 hPa | 0 mm | - | - | - |
| 1777482641 | 8.33° C | 70% | 1021.4 hPa | 0 mm | - | - | - |
| 1777482341 | 8.89° C | 70% | 1021.4 hPa | 0 mm | - | - | - |
| 1777482283 | 8.89° C | 71% | 1021.4 hPa | 0 mm | - | - | - |
| 1777482041 | 8.89° C | 73% | 1021.3 hPa | 0 mm | - | - | - |
| 1777481741 | 8.33° C | 70% | 1021.4 hPa | 0 mm | - | - | - |
| 1777481441 | 8.33° C | 71% | 1021.4 hPa | 0 mm | - | - | - |
| 1777481203 | 8.33° C | 72% | 1021.4 hPa | 0 mm | - | - | - |
| 1777481141 | 8.33° C | 69% | 1021.4 hPa | 0 mm | - | - | - |
| 1777480841 | 8.33° C | 69% | 1021.4 hPa | 0 mm | - | - | - |
| 1777480663 | 8.33° C | 76% | 1021.4 hPa | 0 mm | - | - | - |
| 1777480541 | 7.78° C | 76% | 1021.3 hPa | 0 mm | - | - | - |
| 1777480241 | 7.78° C | 72% | 1021.5 hPa | 0 mm | - | - | - |
| 1777480122 | 7.78° C | 72% | 1021.4 hPa | 0 mm | - | - | - |
| 1777479941 | 7.78° C | 72% | 1021.4 hPa | 0 mm | - | - | - |
| 1777479642 | 7.78° C | 78% | 1021.5 hPa | 0 mm | - | - | - |
| 1777479583 | 7.22° C | 76% | 1021.7 hPa | 0 mm | - | - | - |
| 1777479341 | 7.22° C | 77% | 1021.7 hPa | 0 mm | - | - | - |
| 1777479041 | 7.78° C | 77% | 1021.7 hPa | 0 mm | - | - | - |
| 1777478741 | 7.22° C | 79% | 1021.8 hPa | 0 mm | - | - | - |
| 1777478503 | 7.78° C | 76% | 1021.8 hPa | 0 mm | - | - | - |
* Rain latest hour (hover to see other rain measurements)
** Current wind speed in m/s (hover to see current wind gust speed)